User: anonymous   Login
Location: Long Geng
(2.6167°N, 114.1333°E)
Time: 23:06:36
(UTC+00:00)
Language:

COSMOS 2428 - Orbit

View from above orbital plane
View from above orbital plane
View from above satellite
View from above satellite

Ground track
Ground track

The orbit data is extracted from the following two-line orbital elements,

1 31792U 07029A   21213.73554980  .00000324  00000-0  20178-3 0  9990
2 31792  70.9068 130.8402 0008768 187.9378 172.1605 14.12319547726794
Epoch (UTC): 01 August 2021 17:39:11
Eccentricity: 0.0008768
inclination: 70.9068°
perigee height: 845 km
apogee height: 858 km
right ascension of ascending node: 130.8402°
argument of perigee: 187.9378°
revolutions per day: 14.12319547
mean anomaly at epoch: 172.1605°
orbit number at epoch: 72679

The dashed part of the orbit path shows where the satellite is in the earth's shadow,  

DLR